Location: Axtheid
(49.6213°N, 11.8205°E)
Time: 23:42:23
(UTC+00:00)

Envisat - Pass Details

Date: 27 January 2022
Orbit: 764 x 765 km, 98.2° (Epoch: 22 May)

Event Time Altitude Azimuth Distance (km) Brightness Sun altitude
Rises 05:18:08 0° 7° (N) 3,243 6.2 -15.1°
Reaches altitude 10° 05:20:39 10° 357° (N) 2,313 5.3 -14.7°
Maximum altitude 05:25:05 31° 297° (WNW) 1,326 3.7 -14.0°
Drops below altitude 10° 05:29:29 10° 236° (SW) 2,300 5.1 -13.3°
Sets 05:32:00 0° 226° (SW) 3,223 5.9 -12.9°
